TimeAKST,TemperatureF,Dew PointF,Humidity,Sea Level PressureIn,VisibilityMPH,Wind Direction,Wind SpeedMPH,Gust SpeedMPH,PrecipitationIn,Events,Conditions,WindDirDegrees,DateUTC
12:53 AM,-16.1,-20.0,82,30.12,8.0,Calm,Calm,-,N/A,,Overcast,0,2012-11-17 09:53:00
1:53 AM,-18.0,-22.0,82,30.09,10.0,Calm,Calm,-,N/A,,Partly Cloudy,0,2012-11-17 10:53:00
2:53 AM,-18.9,-24.0,78,30.07,10.0,Calm,Calm,-,N/A,,Overcast,0,2012-11-17 11:53:00
3:53 AM,-18.0,-23.1,78,30.04,10.0,Calm,Calm,-,N/A,,Overcast,0,2012-11-17 12:53:00
4:53 AM,-18.9,-24.0,78,30.02,10.0,Calm,Calm,-,N/A,,Overcast,0,2012-11-17 13:53:00
5:53 AM,-20.0,-24.0,82,30.00,10.0,North,4.6,-,N/A,,Partly Cloudy,360,2012-11-17 14:53:00
6:53 AM,-20.9,-25.1,81,29.98,10.0,Calm,Calm,-,N/A,,Scattered Clouds,0,2012-11-17 15:53:00
7:53 AM,-20.9,-26.0,77,29.96,10.0,Calm,Calm,-,N/A,,Mostly Cloudy,0,2012-11-17 16:53:00
8:53 AM,-18.0,-24.0,74,29.95,10.0,NNE,3.5,-,N/A,,Overcast,20,2012-11-17 17:53:00
9:53 AM,-15.0,-20.0,78,29.92,10.0,ENE,5.8,-,N/A,,Mostly Cloudy,70,2012-11-17 18:53:00
10:53 AM,-9.0,-15.0,75,29.90,10.0,East,13.8,-,N/A,,Scattered Clouds,100,2012-11-17 19:53:00
11:53 AM,-8.0,-14.1,75,29.87,10.0,ESE,13.8,-,N/A,,Scattered Clouds,110,2012-11-17 20:53:00
12:53 PM,-5.1,-13.0,69,29.84,10.0,ESE,15.0,-,N/A,,Scattered Clouds,120,2012-11-17 21:53:00
1:53 PM,-6.0,-13.0,72,29.81,10.0,ESE,13.8,-,N/A,,Scattered Clouds,110,2012-11-17 22:53:00
2:53 PM,-5.1,-13.0,69,29.79,10.0,ESE,16.1,-,N/A,,Scattered Clouds,110,2012-11-17 23:53:00
3:53 PM,-5.1,-13.0,69,29.78,10.0,East,17.3,-,N/A,,Scattered Clouds,100,2012-11-18 00:53:00
4:53 PM,-5.1,-13.0,69,29.75,10.0,East,16.1,-,N/A,,Mostly Cloudy,100,2012-11-18 01:53:00
5:53 PM,-5.1,-13.0,69,29.75,10.0,ESE,16.1,-,N/A,,Mostly Cloudy,120,2012-11-18 02:53:00
6:53 PM,-5.1,-11.9,72,29.74,10.0,ESE,15.0,23.0,N/A,,Mostly Cloudy,110,2012-11-18 03:53:00
7:53 PM,-4.0,-11.9,69,29.73,10.0,ESE,16.1,-,N/A,,Overcast,110,2012-11-18 04:53:00
8:53 PM,-2.9,-11.0,68,29.71,10.0,ESE,15.0,-,N/A,,Overcast,110,2012-11-18 05:53:00
9:53 PM,-2.9,-11.0,68,29.70,10.0,ESE,16.1,29.9,N/A,,Overcast,110,2012-11-18 06:53:00
10:53 PM,-2.9,-11.9,65,29.70,10.0,ESE,18.4,24.2,N/A,,Partly Cloudy,110,2012-11-18 07:53:00
11:53 PM,-4.0,-11.9,69,29.70,10.0,ESE,18.4,-,N/A,,Clear,110,2012-11-18 08:53:00